Location: *
(48.2427°S, 171.9665°W)
Time: 18:55:35
(UTC+00:00)

Daily predictions for brighter satellites

Satellite Brightness Start Highest point End
(mag) Time Altitude Azimuth Time Altitude Azimuth Time Altitude Azimuth
ATLAS 3B R/B 4.0 12:00:02 10° WSW 12:03:58 17° WNW 12:05:15 16° WNW
Timation 1 Rocket 4.4 12:09:46 30° N 12:12:48 70° ENE 12:18:48 10° SSE
Cosmos 1975 Rocket 3.4 12:10:17 10° SSW 12:14:37 52° W 12:16:04 35° NNW
Cosmos 332 Rocket 3.8 12:13:51 35° N 12:15:54 76° ENE 12:20:46 10° SSE
SAR-Lupe-4 3.5 12:15:03 47° N 12:16:00 78° WNW 12:19:40 10° SSW
BREEZE-M DEB (TANK) 4.3 12:11:55 10° W 12:16:01 83° S 12:31:35 10° E
ALOS 2 2.8 12:12:11 10° S 12:16:38 67° WSW 12:18:28 34° NW
Cosmos 1825 2.5 12:16:22 10° SSW 12:19:50 44° W 12:20:28 39° NW
Cosmos 2084 3.6 12:18:22 35° NNW 12:20:15 75° NE 12:25:03 10° SE
CZ-2D R/B 2.2 12:22:49 26° N 12:26:03 81° WNW 12:31:39 10° SSW
Cosmos 1025 Rocket 4.4 12:23:05 10° SSW 12:26:45 26° W 12:28:02 22° WNW
Meteor 1-11 4.2 12:22:21 10° SSW 12:28:12 84° W 12:31:39 25° N
Cosmos 1242 Rocket 3.9 12:25:13 10° S 12:28:14 31° ESE 12:30:08 17° NE
Cosmos 2333 4.1 12:25:59 10° SSW 12:31:40 75° WNW 12:35:29 21° NNE
Cosmos 371 Rocket 4.5 12:29:28 18° WNW 12:32:30 36° WSW 12:37:04 10° S
Cosmos 2322 4.2 12:27:57 10° SSW 12:33:43 61° ESE 12:39:24 10° NE
Okean 1 Rocket 4.1 12:31:24 20° NNE 12:33:58 38° E 12:38:08 10° SSE
Cosmos 1536 Rocket 3.7 12:29:29 10° S 12:34:03 73° E 12:36:39 25° NNE
MSX 3.8 12:30:51 24° N 12:34:27 78° WNW 12:40:17 10° SSW
Sich 1 Rocket 3.8 12:33:44 30° N 12:36:00 73° E 12:40:40 10° SSE
Helios 1A Rocket 2.9 12:33:32 10° SSE 12:37:31 72° ENE 12:39:07 34° N
IDEFIX/ARIANE 42P 2.7 12:35:56 28° N 12:38:44 63° WNW 12:44:03 10° SSW
SL-27 R/B 2.2 12:38:32 48° NNE 12:39:10 64° ENE 12:42:18 10° SSE
CZ-2C R/B 4.3 12:35:04 10° NE 12:40:32 46° ESE 12:46:08 10° S
Okean 2 Rocket 3.1 12:39:07 30° N 12:41:17 77° E 12:45:46 10° SSE
ADEOS II 2.1 12:39:03 22° NNE 12:42:38 89° WNW 12:47:59 10° SSW
Meteor 1-4 Rocket 3.3 12:42:12 10° SSW 12:45:07 31° W 12:45:27 30° WNW
USA 305 4.5 12:44:27 10° SW 12:45:41 14° S 12:46:52 10° SE
Cosmos 2360 Rocket 2.8 12:43:44 10° SW 12:49:00 39° WNW 12:51:36 25° NNW
Cosmos 2219 Rocket 2.1 12:43:21 10° SSW 12:49:00 75° WNW 12:53:31 16° NNE
COSMOS 2441 4.3 12:46:08 23° NNE 12:49:15 85° WNW 12:54:11 10° SSW
USA 307 4.3 12:48:25 10° SW 12:50:12 19° S 12:51:54 10° SE
Cosmos 921 Rocket 2.8 12:47:26 10° SSW 12:51:42 85° WNW 12:54:19 23° NNE
Cosmos 2123 Rocket 4.2 12:49:44 20° N 12:54:13 68° E 13:00:26 10° SSE
Cosmos 1727 Rocket 4.3 12:51:05 24° NNW 12:54:57 59° WSW 13:01:15 10° S
Cosmos 1346 Rocket 3.7 12:53:28 20° NNE 12:55:44 40° E 12:59:28 10° SSE
SL-8 R/B 3.7 12:50:54 10° W 12:55:48 88° SSW 13:00:41 10° E
Cosmos 2173 Rocket 4.0 12:50:09 10° SSW 12:56:19 73° W 13:00:35 21° N
ALOS 2.8 12:57:50 10° NNE 13:02:25 58° ESE 13:07:04 10° S
Cosmos 372 Rocket 4.0 12:59:42 25° NNW 13:02:44 74° WSW 13:07:54 10° SSE
AQUA 3.8 13:00:17 23° N 13:03:16 67° WNW 13:08:06 10° SSW
Cosmos 1455 3.7 13:02:52 18° WNW 13:04:19 23° WSW 13:07:18 10° SSW
Cosmos 1441 Rocket 3.3 13:04:48 30° NNW 13:06:35 67° WSW 13:10:26 10° S
USA 306 4.1 13:06:05 10° SW 13:09:21 37° SSE 13:12:50 10° E
Meteor 2-13 Rocket 4.4 13:07:11 20° N 13:11:32 90° WSW 13:17:43 10° S
ATLAS 5 CENTAUR R/B 2.1 13:05:49 10° SW 13:11:54 84° SE 13:16:41 10° NE
Cosmos 2322 Rocket 3.6 13:08:26 10° SW 13:12:22 20° W 13:14:09 17° WNW
Cosmos 1455 Rocket 4.2 13:09:12 13° NNE 13:12:43 39° E 13:16:50 10° SSE
Cosmos 1937 Rocket 3.7 13:10:03 22° NW 13:13:20 63° WSW 13:18:32 10° SSE
GENESIS II 4.2 13:11:10 10° SW 13:14:43 50° WNW 13:17:03 19° NNE
Cosmos 292 Rocket 3.8 13:11:41 23° NNW 13:14:44 80° ENE 13:19:38 10° SSE
ISS -3.0 13:13:32 10° WSW 13:16:56 55° SSE 13:20:18 10° E
Cosmos 1898 Rocket 4.3 13:15:10 18° NW 13:18:49 44° WSW 13:23:58 10° SSE
USA 308 1.5 13:17:15 10° WSW 13:19:39 88° NW 13:22:30 10° ENE
Resurs 1-4 Rocket 3.2 13:17:55 20° NW 13:20:26 28° W 13:25:00 10° SW
Cosmos 2151 Rocket 4.3 13:19:37 21° NW 13:22:15 42° WSW 13:26:39 10° S
BREEZE M DEB (TANK) 1.9 13:20:56 10° WSW 13:23:03 82° S 13:26:30 10° E
Cosmos 2100 Rocket 4.5 13:17:54 10° SSW 13:23:46 44° W 13:28:01 18° NNW
FENGYUN 3A 3.8 13:20:28 16° N 13:24:43 61° WNW 13:30:08 10° SSW
CZ-4 R/B 3.7 13:20:35 13° NNE 13:24:46 83° WNW 13:29:33 10° SSW
IRIDIUM 106 4.4 13:21:29 10° S 13:26:50 81° E 13:31:49 12° N
USA 215 3.4 13:22:02 10° NNE 13:28:24 51° NW 13:34:51 10° WSW
Thor Agena Rocket 3.6 13:26:08 10° NNE 13:31:19 89° ESE 13:36:40 10° SSW
CZ-2C R/B 3.2 13:29:58 10° NE 13:34:55 54° ESE 13:39:46 10° S
Cosmos 2297 Rocket 3.2 13:30:36 11° N 13:35:35 40° ENE 13:40:53 10° SE
Cosmos 1725 Rocket 4.2 13:30:14 10° SSW 13:36:33 61° W 13:42:07 13° N
Cosmos 1802 Rocket 4.4 13:31:55 10° SSW 13:38:01 49° W 13:42:58 15° NNW
Cosmos 1980 4.2 13:32:25 10° SSW 13:38:07 65° ESE 13:43:45 10° NE
Cosmos 1680 Rocket 4.5 13:34:12 10° SW 13:38:51 30° W 13:42:04 17° NNW
NOSS 0 Rocket 3.9 13:39:41 10° SSW 13:45:57 78° WNW 13:52:11 10° NNE
COSMOS 2428 2.9 13:42:49 10° SW 13:48:21 50° WNW 13:53:48 10° N
Cosmos 2333 Rocket 3.8 13:45:11 10° WSW 13:48:44 17° W 13:51:07 13° NW
Cosmos 1461 3.1 13:46:36 10° SW 13:50:45 53° WNW 13:55:01 10° NNE
SL-24 R/B - RUBIN 2 4.1 13:50:42 15° NNW 13:55:17 72° NE 14:00:10 10° SE
BREEZE-M DEB (TANK) 4.0 13:56:54 11° N 13:56:54 11° N 13:57:07 10° N
Cosmos 2058 3.7 13:52:25 10° S 13:56:30 53° ESE 14:00:33 10° NNE
Cosmos 1048 Rocket 4.0 13:52:29 10° SSW 13:57:54 75° WNW 14:03:11 10° NNE
IRS-1D 3.6 13:53:30 10° NNE 13:58:52 84° WNW 14:04:20 10° SSW
Cosmos 1242 Rocket 4.2 13:59:20 10° SW 14:01:26 16° W 14:02:45 13° WNW
Cosmos 2237 Rocket 2.3 13:56:37 10° SSW 14:02:25 89° ESE 14:08:10 10° NNE
CZ-2D R/B 4.1 14:04:22 10° WNW 14:06:56 13° W 14:09:28 10° WSW
Cosmos 2061 Rocket 4.5 14:02:20 10° SSW 14:08:14 44° W 14:14:07 10° NNW
METEOR-M 4.2 14:04:01 10° N 14:09:22 68° WNW 14:14:49 10° SSW
Cosmos 1892 Rocket 4.2 14:09:57 10° SSW 14:14:08 39° W 14:18:17 10° NNW
Cosmos 2228 4.2 14:11:03 10° NNE 14:15:02 40° E 14:19:07 10° SSE
USA 32 4.4 14:14:04 10° NNW 14:19:12 53° W 14:24:26 10° S
CZ-2C R/B 4.1 14:15:16 10° NNW 14:20:28 34° W 14:25:47 10° SSW
USA 305 3.2 14:19:02 10° SW 14:20:45 27° SSE 14:22:22 10° E
H-2A R/B 4.1 14:16:33 10° NE 14:21:16 33° ESE 14:26:07 10° S
ADEOS II 4.0 14:20:23 10° WNW 14:23:02 14° W 14:25:42 10° WSW
PAYLOAD A 3.9 14:18:27 10° N 14:23:09 64° WNW 14:27:57 10° SSW
USA 281 3.4 14:18:06 10° NNE 14:24:42 86° ESE 14:31:22 10° SSW
USA 307 2.3 14:23:40 10° SW 14:25:49 47° SSE 14:27:56 10° ENE
Cosmos 2084 Rocket 3.7 14:24:31 10° SW 14:29:15 60° NW 14:33:55 10° NNE
Cosmos 1125 Rocket 3.6 14:25:11 10° NNW 14:30:29 87° WSW 14:35:49 10° SSE
Cosmos 2219 Rocket 4.0 14:29:52 10° WSW 14:31:56 12° W 14:34:00 10° WNW
Cosmos 2227 Rocket 2.7 14:26:36 10° N 14:32:11 62° ENE 14:37:51 10° SSE
Geosat 4.1 14:29:45 10° NNE 14:34:48 89° ESE 14:39:55 10° SSW
YAOGAN 6 2.6 14:32:09 10° N 14:35:28 55° W 14:38:53 10° SSW
ARIANE 5 R/B 3.9 14:31:02 10° NE 14:35:55 44° ESE 14:40:49 10° S
BREEZE-M DEB (TANK) 3.0 14:34:34 10° W 14:36:44 24° NNW 14:38:49 10° NNE
CZ-2C R/B 3.9 14:31:23 10° SSE 14:36:47 44° E 14:42:10 10° N
SL-8 R/B 3.7 14:33:26 10° W 14:38:19 77° NNW 14:43:10 10° ENE
CBERS-1 4.0 14:34:14 10° NNE 14:39:23 80° WNW 14:44:36 10° SSW
Cosmos 1869 4.0 14:35:33 10° N 14:39:28 55° E 14:43:27 10° SSE
Cosmos 44 3.8 14:35:31 10° SSW 14:39:47 58° SE 14:44:13 10° NE
ALOS 3.8 14:36:45 10° NW 14:40:03 19° W 14:43:24 10° SW
Envisat 3.4 14:35:42 10° N 14:40:35 45° W 14:45:34 10° SSW
Meteor 2-3 Rocket 4.1 14:35:16 10° S 14:41:06 72° ESE 14:46:47 10° NNE
USA 306 2.5 14:41:19 10° WSW 14:44:55 74° NNW 14:48:46 10° NE
